Prestwick, United Kingdom

8:19 AM BST on June 23, 2017 (GMT +0100)
Prestwick

Weather History for EGPK - December, 2012

Change the Weather History Date:

Wednesday, December 5, 2012

  Actual Average Record
Temperature  
Mean Temperature 30 °F -  
Max Temperature 37 °F 44 °F 57 °F (2015)
Min Temperature 24 °F 34 °F 24 °F (1998)
Degree Days  
Heating Degree Days 34    
Moisture  
Dew Point 26 °F    
Average Humidity 87    
Maximum Humidity 93    
Minimum Humidity 65    
Precipitation  
Precipitation 0.00 in - - ()
Sea Level Pressure  
Sea Level Pressure 29.93 in    
Wind  
Wind Speed 2 mph ()    
Max Wind Speed 8 mph    
Max Gust Speed -    
Visibility 6.2 miles    
Events      
Averages and records for this station are not official NWS values.
T = Trace of Precipitation, MM = Missing Value Source: Averaged Metar Reports

Daily Weather History Graph

Daily Weather History Graph

Search for Another Location

Airport or City:

Trip Planner

Search our weather history database for the weather conditions in past years. The results will help you decide how hot, cold, wet, or windy it might be!

Date:

Astronomy

Dec. 05, 2012 Rise Set
Actual Time 8:28 AM GMT 3:49 PM GMT
Civil Twilight 7:43 AM GMT 4:34 PM GMT
Nautical Twilight 6:55 AM GMT 5:21 PM GMT
Astronomical Twilight 6:11 AM GMT 6:06 PM GMT
Moon 11:16 PM GMT (12/5) 11:58 AM GMT (12/5)
Length of Visible Light 8h 50m
Length of Day
7h 20m
Waning Gibbous, 62% of the Moon is Illuminated
Dec 5
Waning Gibbous
Dec 6
Last Quarter
Dec 13
New
Dec 20
First Quarter
Dec 28
Full

Hourly Weather History & Observations

Time (GMT) Temp. Windchill Dew Point Humidity Pressure Visibility Wind Dir Wind Speed Gust Speed Precip Events Conditions
12:50 AM 30.2 °F - 28.4 °F 93% 29.77 in 6.2 mi Calm Calm - N/A   Partly Cloudy
1:50 AM 28.4 °F - 26.6 °F 93% 29.80 in 6.2 mi Calm Calm - N/A   Partly Cloudy
2:50 AM 26.6 °F - 24.8 °F 93% 29.80 in 6.2 mi Calm Calm - N/A   Partly Cloudy
3:50 AM 26.6 °F - 24.8 °F 93% 29.80 in 6.2 mi Calm Calm - N/A   Partly Cloudy
4:50 AM 28.4 °F - 26.6 °F 93% 29.83 in 6.2 mi Calm Calm - N/A   Partly Cloudy
5:50 AM 26.6 °F - 24.8 °F 93% 29.83 in 6.2 mi Calm Calm - N/A   Partly Cloudy
6:20 AM 26.6 °F 22.6 °F 24.8 °F 93% 29.83 in 6.2 mi NW 3.5 mph - N/A   Partly Cloudy
6:50 AM 28.4 °F 22.2 °F 26.6 °F 93% 29.83 in 6.2 mi NNW 5.8 mph - N/A   Partly Cloudy
7:20 AM 30.2 °F 23.4 °F 26.6 °F 86% 29.86 in 6.2 mi NW 6.9 mph - N/A   Partly Cloudy
7:50 AM 30.2 °F 25.4 °F 28.4 °F 93% 29.86 in 6.2 mi WNW 4.6 mph - N/A   Partly Cloudy
8:20 AM 28.4 °F - 24.8 °F 86% 29.86 in 6.2 mi North 2.3 mph - N/A   Partly Cloudy
8:50 AM 28.4 °F - 26.6 °F 93% 29.86 in 6.2 mi Calm Calm - N/A   Partly Cloudy
9:20 AM 28.4 °F - 26.6 °F 93% 29.89 in 6.2 mi Calm Calm - N/A   Partly Cloudy
9:50 AM 28.4 °F - 26.6 °F 93% 29.89 in 6.2 mi Calm Calm - N/A   Partly Cloudy
10:20 AM 32.0 °F - 30.2 °F 93% 29.92 in 6.2 mi Calm Calm - N/A   Partly Cloudy
10:50 AM 33.8 °F - 30.2 °F 87% 29.92 in 6.2 mi Calm Calm - N/A   Partly Cloudy
11:20 AM 35.6 °F - 32.0 °F 87% 29.92 in 6.2 mi ESE 2.3 mph - N/A   Partly Cloudy
11:50 AM 37.4 °F - 32.0 °F 81% 29.92 in 6.2 mi Calm Calm - N/A   Partly Cloudy
12:20 PM 37.4 °F 32.8 °F 32.0 °F 81% 29.95 in 6.2 mi NW 5.8 mph - N/A   Partly Cloudy
12:50 PM 37.4 °F 32.8 °F 30.2 °F 75% 29.95 in 6.2 mi NW 5.8 mph - N/A   Partly Cloudy
2:50 PM 37.4 °F - 26.6 °F 65% 29.95 in 6.2 mi North 2.3 mph - N/A   Partly Cloudy
3:20 PM 35.6 °F 32.8 °F 26.6 °F 70% 29.98 in 6.2 mi NW 3.5 mph - N/A   Partly Cloudy
3:50 PM 33.8 °F - 26.6 °F 75% 29.98 in 6.2 mi Calm Calm - N/A   Partly Cloudy
4:20 PM 32.0 °F - 24.8 °F 75% 29.98 in 6.2 mi Calm Calm - N/A   Partly Cloudy
4:50 PM 30.2 °F - 24.8 °F 80% 29.98 in 6.2 mi Variable 2.3 mph - N/A   Partly Cloudy
5:20 PM 28.4 °F - 24.8 °F 86% 29.98 in 6.2 mi NE 2.3 mph - N/A   Partly Cloudy
5:50 PM 28.4 °F - 24.8 °F 86% 30.01 in 6.2 mi Calm Calm - N/A   Partly Cloudy
6:20 PM 26.6 °F - 23.0 °F 86% 30.01 in 6.2 mi Calm Calm - N/A   Partly Cloudy
6:50 PM 26.6 °F - 23.0 °F 86% 30.01 in 6.2 mi Variable 2.3 mph - N/A   Partly Cloudy
7:20 PM 26.6 °F 21.2 °F 23.0 °F 86% 30.01 in 6.2 mi ESE 4.6 mph - N/A   Partly Cloudy
7:50 PM 24.8 °F - 23.0 °F 93% 30.01 in 6.2 mi East 2.3 mph - N/A   Partly Cloudy
8:20 PM 26.6 °F - 23.0 °F 86% 30.01 in 6.2 mi East 2.3 mph - N/A   Partly Cloudy
8:50 PM 24.8 °F 17.9 °F 23.0 °F 93% 30.01 in 6.2 mi East 5.8 mph - N/A   Partly Cloudy
9:20 PM 26.6 °F 18.2 °F 23.0 °F 86% 30.01 in 6.2 mi ESE 8.1 mph - N/A   Partly Cloudy
9:50 PM 26.6 °F 20.0 °F 23.0 °F 86% 30.01 in 6.2 mi ESE 5.8 mph - N/A   Partly Cloudy
10:20 PM 26.6 °F 20.0 °F 23.0 °F 86% 30.01 in 6.2 mi ESE 5.8 mph - N/A   Partly Cloudy
10:50 PM 26.6 °F 19.1 °F 23.0 °F 86% 29.98 in 6.2 mi ESE 6.9 mph - N/A   Partly Cloudy
11:20 PM 26.6 °F 20.0 °F 23.0 °F 86% 29.98 in 6.2 mi ESE 5.8 mph - N/A   Partly Cloudy
11:50 PM 26.6 °F 20.0 °F 23.0 °F 86% 29.98 in 6.2 mi ESE 5.8 mph - N/A   Partly Cloudy